Terminal Aerodrome Forecast
Issued by NWS La Crosse, WI

Home | Current Version | Previous Version | Text Only | Print | Product List | Glossary On
Versions: 1 2 3 4 5 6 7 8 9 10 11 12 13 14 15 16 17 18 19 20 21 22 23 24 25 26 27 28 29 30 31 32 33 34 35 36 37 38 39 40 41 42
000
FTUS43 KARX 260530
TAFLSE
TAF
KLSE 260530Z 2606/2706 13005KT P6SM OVC080
     FM262000 03005KT P6SM -SN OVC050
     FM262200 36004KT 4SM -SN OVC030
     FM270300 32008KT P6SM -SN OVC030=

USA.gov is the U.S. government's official web portal to all federal, state and local government web resources and services.